Terug naar catalogus

SL-8 R/B

ActiefPO
NORAD 16369·ROCKET BODY·🇷🇺 Russia

Gelanceerd Dec 19, 1985 vanaf Plesetsk Cosmodrome

Loading…

Volgende Passages (komende 24 uur)

TLE

VersSource: Space-Track

Epoch: Sep 14, 2026, 17:22 UTC

1 16369U 85116B   26257.72379142  .00000049  00000-0  33378-4 0  9994
2 16369  82.9414 356.6702 0037442  69.7456  92.9768 13.77204348 46359

Volg SL-8 R/B in realtime met AllMySat

Download on the App Store